Location: Freistadt
(48.5112°N, 14.5013°E)
Time: 00:24:39
(UTC+02:00)

O/OREOS (USA 219) - Pass Details

Date: 08 April 2023
Orbit: 621 x 646 km, 72.0° (Epoch: 22 May)

Event Time Altitude Azimuth Distance (km) Brightness Sun altitude
Exits shadow 03:32:32 28° 126° (SE) 1,194 ? -25.6°
Maximum altitude 03:33:21 30° 106° (ESE) 1,142 ? -25.5°
Drops below altitude 10° 03:37:19 10° 45° (NE) 2,028 ? -25.1°
Sets 03:39:47 0° 35° (NE) 2,936 ? -24.8°
